Yakima, WA

12:16 AM PDT on June 21, 2018 (GMT -0700)
Yakima Air Term-McAllister

Weather History for KYKM - November, 2017

Change the Weather History Date:

Saturday, November 11, 2017

  Actual Average Record
Temperature  
Mean Temperature 44 °F 39 °F  
Max Temperature 46 °F 50 °F 65 °F (1959)
Min Temperature 42 °F 28 °F 8 °F (1978)
Degree Days  
Heating Degree Days 21 26  
Month to date heating degree days 276 265  
Since 1 July heating degree days 837 969  
Cooling Degree Days 0 0  
Month to date cooling degree days 0 0  
Year to date cooling degree days 1054 472  
Moisture  
Dew Point 41 °F    
Average Humidity 93    
Maximum Humidity 96    
Minimum Humidity 89    
Precipitation  
Precipitation 0.01 in 0.04 in 0.25 in (1984)
Month to date precipitation 0.70 0.34  
Year to date precipitation 9.44 6.01  
Snow  
Snow 0.00 in 0.10 in 0.30 in (1986)
Month to date snowfall 0.4 0.4  
Year to date snowfall 29.5 9.1  
Since 1 July snowfall 0.4 0.5  
Snow Depth 0.00 in    
Sea Level Pressure  
Sea Level Pressure 30.12 in    
Wind  
Wind Speed 2 mph (West)    
Max Wind Speed 9 mph    
Max Gust Speed 23 mph    
Visibility 4 miles    
Events Rain    
T = Trace of Precipitation, MM = Missing Value Source: NWS Daily Summary

Daily Weather History Graph

Daily Weather History Graph

Search for Another Location

Airport or City:

Astronomy

Nov. 11, 2017 Rise Set
Actual Time 6:59 AM PST 4:32 PM PST
Civil Twilight 6:26 AM PST 5:05 PM PST
Nautical Twilight 5:50 AM PST 5:41 PM PST
Astronomical Twilight 5:14 AM PST 6:17 PM PST
Moon No Moon Rise 1:46 PM PST (11/11)
Length of Visible Light 10h 38m
Length of Day
9h 33m
Last Quarter, 40% of the Moon is Illuminated
Nov 11
Last Quarter
Nov 18
New
Nov 26
First Quarter
Dec 3
Full
Dec 9
Last Quarter

Hourly Weather History & Observations

Time (PST) Temp. Windchill Dew Point Humidity Pressure Visibility Wind Dir Wind Speed Gust Speed Precip Events Conditions
5:52 AM 42.8 °F - 39.2 °F 87% - 3.0 mi North - - N/A   Overcast
6:53 AM 42.8 °F - 39.2 °F 87% - - North - - N/A   Overcast
7:53 AM 42.8 °F - 39.2 °F 87% - - North - - N/A   Overcast
8:53 AM 42.8 °F - 39.2 °F 87% - - North - - N/A Rain Overcast
9:22 AM 43.0 °F - 39.9 °F 89% 30.13 in 2.0 mi Calm Calm - 0.00 in Rain Light Rain
9:51 AM 42.8 °F - 41.0 °F 93% 30.13 in 1.5 mi Calm Calm - 0.00 in   Overcast
9:53 AM 43.0 °F - 41.0 °F 93% 30.15 in 1.5 mi Calm Calm - 0.00 in   Overcast
10:29 AM 43.0 °F - 41.0 °F 93% 30.14 in 0.8 mi Calm Calm - N/A   Overcast
10:39 AM 43.0 °F - 41.0 °F 93% 30.14 in 1.0 mi Calm Calm - N/A   Overcast
10:53 AM 43.0 °F - 41.0 °F 93% 30.16 in 1.0 mi Calm Calm - N/A   Overcast
11:53 AM 44.1 °F - 41.0 °F 89% 30.15 in 1.0 mi Calm Calm - N/A   Overcast
12:08 PM 44.1 °F - 41.0 °F 89% 30.13 in 1.2 mi Calm Calm - N/A   Overcast
12:53 PM 44.1 °F - 41.0 °F 89% 30.14 in 1.2 mi Calm Calm - N/A   Overcast
1:02 PM 44.1 °F - 41.0 °F 89% 30.12 in 2.0 mi Calm Calm - N/A   Overcast
1:36 PM 45.0 °F - 42.1 °F 90% 30.12 in 2.0 mi Calm Calm - N/A   Overcast
1:43 PM 44.1 °F - 41.0 °F 89% 30.11 in 3.0 mi Calm Calm - N/A   Overcast
1:53 PM 44.1 °F - 42.1 °F 93% 30.13 in 3.0 mi Calm Calm - N/A   Overcast
2:53 PM 45.0 °F - 41.0 °F 86% 30.13 in 6.0 mi Calm Calm - N/A   Overcast
3:53 PM 45.0 °F 43.5 °F 41.0 °F 86% 30.13 in 10.0 mi NNW 3.5 mph - N/A   Overcast
4:53 PM 45.0 °F - 41.0 °F 86% 30.12 in 10.0 mi Calm Calm - N/A   Overcast
5:53 PM 44.1 °F - 41.0 °F 89% 30.12 in 7.0 mi Calm Calm - N/A   Overcast
6:53 PM 44.1 °F 41.5 °F 41.0 °F 89% 30.12 in 7.0 mi West 4.6 mph - N/A   Overcast
7:53 PM 44.1 °F 41.5 °F 41.0 °F 89% 30.11 in 7.0 mi West 4.6 mph - N/A   Overcast
8:53 PM 44.1 °F 42.5 °F 41.0 °F 89% 30.10 in 8.0 mi WSW 3.5 mph - N/A   Overcast
9:37 PM 44.1 °F 40.8 °F 41.0 °F 89% 30.09 in 7.0 mi West 5.8 mph - N/A   Overcast
9:53 PM 44.1 °F 42.5 °F 41.0 °F 89% 30.10 in 7.0 mi WSW 3.5 mph - N/A   Overcast
10:53 PM 44.1 °F 41.5 °F 41.0 °F 89% 30.09 in 7.0 mi West 4.6 mph - N/A   Overcast
11:53 PM 43.0 °F 40.3 °F 41.0 °F 93% 30.10 in 6.0 mi West 4.6 mph - N/A   Overcast